Location: Ciserano
(45.5833°N, 9.6000°E)
Time: 00:12:17
(UTC+00:00)

SJ 16-02 - Pass Details

Date: 24 April 2021
Orbit: 605 x 617 km, 75.0° (Epoch: 10 May)

Event Time Altitude Azimuth Distance (km) Brightness Sun altitude
Exits shadow 23:46:24 27° 46° (NE) 1,193 3.2 -30.9°
Drops below altitude 10° 23:48:38 10° 31° (NNE) 1,988 4.7 -30.9°
Sets 23:50:57 0° 26° (NNE) 2,899 5.8 -30.8°
